Flag for Canada Weather past 2 weeks in Colchester County, Nova Scotia, Canada

Now
64 °F

Fog.


Feels Like: 64 °F
Forecast: 53 / 76 °F
Wind: 2 mph from Northeast

Location: Halifax International Airport

Current Time: Jul 1, 2015 at 9:29:45 AM

Latest Report: Jul 1, 2015 at 9:00 AM


Visibility: 6 mi

Pressure: 30.03 "Hg

Humidity: 83%

Dew point: 59 °F

Location of Colchester CountyLocation

Historic Weather in Colchester County — Graph

°F

Colchester County temperature yesterday

Maximum temperature yesterday: 73 °F (at 5:00 PM)
Minimum temperature yesterday: 54 °F (at 3:00 AM)
Average temperature yesterday: 62 °F

Past Weeks' High & Low Weather Summary

 TemperatureHumidityPressure
High73 °F (Jun 25, 12:00 PM)100% (Jun 16, 7:00 PM)30.23 "Hg (Jun 16, 7:00 PM)
Low43 °F (Jun 27, 5:00 AM)31% (Jun 25, 1:00 PM)29.48 "Hg (Jun 22, 5:00 AM)
Average58 °F79%29.95 "Hg
* Reported Jun 16 8:00 AM — Jul 1 8:00 AM, Colchester County, Weather by CustomWeather, © 2015

Note: Actual official high and low records may vary slightly from our data, if they occured in-between our weather recording intervals... More about our weather records

Advertising

Colchester County weather history for previous 24 hours

 ConditionsComfort  
Time TempWeatherWind HumidityBarometerVisibility
8:00 AM
Wed, Jul 1
61 °FPartly sunny.2 mph88%30.03 "Hg2 mi
7:00 AM59 °FLight fog.3 mph94%30.03 "Hg1 mi
6:00 AM55 °FFog.2 mph94%30.02 "Hg10 mi
5:00 AM57 °FPassing clouds.2 mph94%30.02 "Hg15 mi
4:00 AM57 °FPassing clouds.5 mph94%30.03 "Hg15 mi
3:00 AM55 °FFog.2 mph94%30.02 "Hg2 mi
2:00 AM55 °FPassing clouds.5 mph94%30.03 "Hg10 mi
1:50 AM54 °FPassing clouds.3 mph100%30.03 "Hg10 mi
1:00 AM55 °FFog.6 mph94%30.02 "Hg6 mi
12:00 AM55 °FPassing clouds.3 mph94%30.02 "Hg15 mi
11:00 PM
Tue, Jun 30
57 °FPassing clouds.8 mph94%30.01 "Hg15 mi
10:00 PM63 °FScattered clouds.7 mphN/AN/A15 mi
9:00 PM64 °FPartly sunny.5 mph83%29.99 "Hg15 mi
8:00 PM68 °FScattered clouds.9 mph73%29.99 "Hg15 mi
7:00 PM70 °FScattered clouds.12 mph69%29.98 "Hg15 mi
6:00 PM72 °FScattered clouds.13 mph69%29.98 "Hg15 mi
5:00 PM73 °FBroken clouds.7 mph65%29.98 "Hg15 mi
4:00 PM72 °FPartly sunny.6 mph69%29.99 "Hg15 mi
3:00 PM70 °FBroken clouds.8 mph69%30.00 "Hg15 mi
2:00 PM70 °FBroken clouds.8 mph69%30.01 "Hg15 mi
1:00 PM68 °FPartly sunny.14 mph69%30.01 "Hg15 mi
12:00 PM66 °FBroken clouds.10 mph73%30.01 "Hg15 mi
11:00 AM64 °FBroken clouds.7 mph78%30.01 "Hg15 mi
10:00 AM63 °FPartly sunny.7 mph77%30.01 "Hg15 mi
9:00 AM59 °FPartly sunny.3 mph88%30.00 "Hg15 mi
Weather by CustomWeather, © 2015

See weather overviewHow to use our weather pages